Date,TemperatureHighF,TemperatureAvgF,TemperatureLowF,DewpointHighF,DewpointAvgF,DewpointLowF,HumidityHigh,HumidityAvg,HumidityLow,PressureMaxIn,PressureMinIn,WindSpeedMaxMPH,WindSpeedAvgMPH,GustSpeedMaxMPH,PrecipitationSumIn
2012-12-1,56.3,34.3,21.9,33.4,26.4,19.2,92,75,39,30.42,30.30,5,1,10,0.00
2012-12-2,63.2,40.6,24.7,44.4,33.9,22.4,95,80,42,30.35,30.09,7,1,13,0.00
2012-12-3,65.8,51.2,41.3,56.4,46.5,39.4,97,85,59,30.23,30.14,8,1,13,0.00
2012-12-4,70.8,52.8,39.5,52.1,44.2,38.2,97,76,35,30.19,29.95,8,2,15,0.00
2012-12-5,59.8,45.6,25.8,49.6,30.9,19.8,80,58,35,30.29,29.96,8,3,19,0.00
2012-12-6,45.2,28.8,16.4,26.1,20.5,13.3,91,73,39,30.36,30.15,5,1,10,0.00
2012-12-7,40.8,35.6,29.5,37.2,32.6,25.3,93,89,83,30.15,29.94,3,0,7,0.05
2012-12-8,60.2,44.6,34.7,48.1,40.9,32.3,96,88,62,30.01,29.84,6,1,16,0.07
2012-12-9,49.4,46.3,44.6,48.0,45.2,43.5,97,96,95,30.12,29.88,3,0,7,0.37
2012-12-10,55.0,47.6,40.1,54.0,46.1,32.6,98,95,74,29.87,29.53,10,1,21,0.02
2012-12-11,41.5,36.4,26.3,34.8,27.3,21.6,88,70,51,30.21,29.70,8,2,20,0.00
2012-12-12,35.9,29.1,22.4,28.1,23.0,19.1,90,79,58,30.44,30.21,6,1,12,0.00
2012-12-13,44.1,26.1,15.7,26.2,18.8,13.0,92,77,35,30.50,30.33,4,0,8,0.00
2012-12-14,55.6,29.4,15.4,27.2,19.2,12.7,92,72,20,30.33,30.23,7,1,9,0.00
2012-12-15,52.2,35.5,23.0,32.3,24.5,20.0,91,68,31,30.27,30.04,8,1,14,0.00
2012-12-16,44.3,40.0,32.1,37.8,34.9,29.0,93,82,61,30.05,29.79,5,1,9,0.00
2012-12-17,48.2,40.7,31.3,42.6,37.6,29.4,96,89,77,29.82,29.51,5,1,13,0.14
2012-12-18,48.6,38.8,27.8,41.3,32.4,24.3,97,79,58,29.79,29.50,8,2,22,0.01
2012-12-19,51.0,38.4,26.3,35.7,30.0,23.5,95,73,49,30.16,29.77,8,2,22,0.00
2012-12-20,41.5,34.5,27.2,37.2,30.7,24.9,94,86,64,30.16,29.39,12,2,22,0.33
2012-12-21,39.1,33.8,31.2,37.8,22.4,16.6,95,64,53,29.59,29.35,14,7,36,0.05
2012-12-22,36.8,31.3,26.3,21.6,17.3,12.7,65,56,44,30.03,29.59,12,5,44,0.00
2012-12-23,48.3,28.6,15.2,24.5,17.3,11.5,88,66,29,30.03,29.86,7,2,13,0.00
2012-12-24,34.1,26.8,19.9,28.4,23.8,17.2,93,89,68,30.02,29.87,6,0,13,0.15
2012-12-25,40.2,32.0,26.1,33.6,27.8,24.5,96,85,60,30.21,29.89,6,1,12,0.00
2012-12-26,32.2,27.7,25.6,28.7,25.0,23.5,94,90,79,30.20,29.54,6,2,12,0.92
2012-12-27,34.9,31.1,27.0,29.5,23.3,20.5,94,73,56,30.04,29.52,10,4,27,0.00
2012-12-28,39.5,31.2,25.8,24.7,22.1,20.2,85,70,47,30.13,29.97,6,1,15,0.00
2012-12-29,41.1,32.2,27.2,31.5,25.8,22.9,92,78,58,29.97,29.56,9,2,28,0.03
2012-12-30,34.3,28.6,17.7,24.0,17.3,12.9,81,63,47,30.31,29.84,9,4,31,0.00
2012-12-31,42.8,26.4,12.4,26.7,17.1,9.3,89,70,27,30.31,29.99,8,1,18,0.00